{"data":{"norad_id":41925,"intl_designator":"2017-003J","name":"IRIDIUM 112","alt_names":[],"object_type":"PAYLOAD","status":"ACTIVE","operator":null,"country":"US","launch_date":"2017-01-14","launch_site_code":"AFWTR","launch_vehicle":null,"mission":null,"orbit_class":"UNKNOWN","rcs_meters":2.652,"size_class":null,"mass_kg":null,"dimensions":null,"purposes":["comms"],"wikipedia_slug":null,"has_3d_model":false,"image_url":null,"decayed_at":null,"tle_current":{"epoch":"2026-09-20T03:47:54.305088Z","epoch_age_seconds":45081,"freshness":"FRESH","line1":"1 41925U 17003J   26263.15826742  .00000091  00000+0  25608-4 0  9990","line2":"2 41925  86.3947  48.5643 0002167  92.9589 267.1854 14.34217775506889","mean_motion":14.34217775,"eccentricity":0.0002167,"inclination_deg":86.3947,"raan_deg":48.5643,"arg_perigee_deg":92.9589,"mean_anomaly_deg":267.1854,"bstar":2.5608e-5,"rev_number":50688,"period_min":100.40316227429,"perigee_km":776.11640845554,"apogee_km":779.21773394,"semimajor_km":7155.8040711978,"source":"CELESTRAK","updated_at":"2026-09-20T09:00:36.321318Z"}}}